{"data":{"norad_id":37793,"intl_designator":"2011-044F","name":"APRIZESAT 6","alt_names":[],"object_type":"PAYLOAD","status":"ACTIVE","operator":null,"country":"US","launch_date":"2011-08-17","launch_site_code":"DLS","launch_vehicle":null,"mission":null,"orbit_class":"UNKNOWN","rcs_meters":0.1735,"size_class":null,"mass_kg":null,"dimensions":null,"purposes":["tech_demo"],"wikipedia_slug":null,"has_3d_model":false,"image_url":null,"decayed_at":null,"tle_current":{"epoch":"2026-09-19T12:56:24.211968Z","epoch_age_seconds":94281,"freshness":"FRESH","line1":"1 37793U 11044F   26262.53916912  .00000378  00000+0  60662-4 0  9994","line2":"2 37793  98.2283 174.9314 0043767 142.5206  31.9123 14.77025845811078","mean_motion":14.77025845,"eccentricity":0.0043767,"inclination_deg":98.2283,"raan_deg":174.9314,"arg_perigee_deg":142.5206,"mean_anomaly_deg":31.9123,"bstar":6.0662e-5,"rev_number":81107,"period_min":97.493216173208,"perigee_km":608.01713391444,"apogee_km":669.43855865993,"semimajor_km":7016.8648462872,"source":"CELESTRAK","updated_at":"2026-09-20T09:00:47.443755Z"}}}